| time (UTC) | temp C | wind direction | speed KPH | gust KPH | rain 1hr cm | rain 24hr cm | rain mn cm | humidity % | barometer mb |
| 20260504215341 | 30 | 69 | 1.6 | 9.7 | 0.00 | 0.00 | 0.00 | 48 | 1012.7 |
| 20260504214822 | 29 | 129 | 1.6 | 9.7 | 0.00 | 0.00 | 0.00 | 50 | 1012.8 |
| 20260504214319 | 28 | 185 | 3.2 | 11.3 | 0.00 | 0.00 | 0.00 | 51 | 1012.7 |
| 20260504213820 | 29 | 115 | 4.8 | 12.9 | 0.00 | 0.00 | 0.00 | 50 | 1012.7 |
| 20260504213320 | 29 | 124 | 8.0 | 12.9 | 0.00 | 0.00 | 0.00 | 49 | 1012.7 |
| 20260504212819 | 29 | 131 | 1.6 | 9.7 | 0.00 | 0.00 | 0.00 | 48 | 1012.7 |
| 20260504212319 | 29 | 128 | 4.8 | 17.7 | 0.00 | 0.00 | 0.00 | 49 | 1012.7 |
| 20260504211820 | 29 | 114 | 11.3 | 19.3 | 0.00 | 0.00 | 0.00 | 48 | 1012.7 |
| 20260504211318 | 29 | 115 | 8.0 | 17.7 | 0.00 | 0.00 | 0.00 | 49 | 1012.8 |
| 20260504210816 | 29 | 108 | 8.0 | 16.1 | 0.00 | 0.00 | 0.00 | 49 | 1012.8 |
| 20260504210319 | 30 | 357 | 3.2 | 16.1 | 0.00 | 0.00 | 0.00 | 47 | 1012.9 |
| 20260504205831 | 29 | 108 | 3.2 | 12.9 | 0.00 | 0.00 | 0.00 | 48 | 1012.9 |
| 20260504205331 | 29 | 70 | 4.8 | 14.5 | 0.00 | 0.00 | 0.00 | 47 | 1013.0 |
| 20260504204830 | 29 | 88 | 8.0 | 16.1 | 0.00 | 0.00 | 0.00 | 48 | 1012.9 |
| 20260504204328 | 29 | 98 | 4.8 | 24.1 | 0.00 | 0.00 | 0.00 | 49 | 1012.9 |
| 20260504203829 | 29 | 124 | 4.8 | 19.3 | 0.00 | 0.00 | 0.00 | 49 | 1012.9 |
| 20260504203330 | 28 | 42 | 3.2 | 20.9 | 0.00 | 0.00 | 0.00 | 49 | 1012.9 |
| 20260504202828 | 29 | 161 | 4.8 | 22.5 | 0.00 | 0.00 | 0.00 | 49 | 1012.9 |
| 20260504202327 | 28 | 131 | 4.8 | 17.7 | 0.00 | 0.00 | 0.00 | 50 | 1013.1 |
| 20260504201826 | 28 | 99 | 4.8 | 20.9 | 0.00 | 0.00 | 0.00 | 49 | 1013.1 |
| 20260504201324 | 28 | 93 | 9.7 | 20.9 | 0.00 | 0.00 | 0.00 | 47 | 1013.1 |
| 20260504200822 | 28 | 153 | 3.2 | 17.7 | 0.00 | 0.00 | 0.00 | 48 | 1013.1 |
| 20260504200321 | 28 | 173 | 8.0 | 17.7 | 0.00 | 0.00 | 0.00 | 48 | 1013.2 |
| 20260504195818 | 28 | 162 | 3.2 | 9.7 | 0.00 | 0.00 | 0.00 | 51 | 1013.4 |
| 20260504195334 | 28 | 53 | 6.4 | 11.3 | 0.00 | 0.00 | 0.00 | 49 | 1013.4 |
| 20260504194854 | 28 | 118 | 4.8 | 24.1 | 0.00 | 0.00 | 0.00 | 49 | 1013.5 |
| 20260504194323 | 28 | 104 | 4.8 | 24.1 | 0.00 | 0.00 | 0.00 | 50 | 1013.5 |
| 20260504193823 | 28 | 54 | 4.8 | 12.9 | 0.00 | 0.00 | 0.00 | 50 | 1013.7 |
| 20260504193324 | 28 | 50 | 4.8 | 12.9 | 0.00 | 0.00 | 0.00 | 50 | 1013.7 |
| 20260504192821 | 29 | 139 | 4.8 | 14.5 | 0.00 | 0.00 | 0.00 | 49 | 1013.8 |
| 20260504192339 | 28 | 358 | 6.4 | 14.5 | 0.00 | 0.00 | 0.00 | 50 | 1013.8 |
| 20260504191818 | 28 | 65 | 6.4 | 17.7 | 0.00 | 0.00 | 0.00 | 50 | 1013.9 |
| 20260504191314 | 28 | 59 | 11.3 | 17.7 | 0.00 | 0.00 | 0.00 | 50 | 1014.0 |
| 20260504190901 | 28 | 146 | 6.4 | 12.9 | 0.00 | 0.00 | 0.00 | 50 | 1014.1 |
| 20260504190318 | 28 | 111 | 8.0 | 19.3 | 0.00 | 0.00 | 0.00 | 51 | 1014.0 |
| 20260504185815 | 28 | 122 | 8.0 | 19.3 | 0.00 | 0.00 | 0.00 | 50 | 1014.1 |
| 20260504185315 | 27 | 122 | 8.0 | 17.7 | 0.00 | 0.00 | 0.00 | 50 | 1014.2 |
| 20260504184816 | 27 | 117 | 9.7 | 14.5 | 0.00 | 0.00 | 0.00 | 50 | 1014.2 |
| 20260504184333 | 27 | 118 | 4.8 | 19.3 | 0.00 | 0.00 | 0.00 | 48 | 1014.3 |
| 20260504183832 | 27 | 50 | 12.9 | 19.3 | 0.00 | 0.00 | 0.00 | 49 | 1014.4 |
| 20260504183314 | 27 | 42 | 8.0 | 19.3 | 0.00 | 0.00 | 0.00 | 50 | 1014.4 |
| 20260504182831 | 27 | 118 | 11.3 | 19.3 | 0.00 | 0.00 | 0.00 | 49 | 1014.6 |
| 20260504182331 | 27 | 113 | 8.0 | 20.9 | 0.00 | 0.00 | 0.00 | 51 | 1014.6 |
| 20260504181831 | 27 | 118 | 8.0 | 20.9 | 0.00 | 0.00 | 0.00 | 51 | 1014.7 |
| 20260504181329 | 27 | 23 | 8.0 | 17.7 | 0.00 | 0.00 | 0.00 | 49 | 1014.9 |
| 20260504180848 | 27 | 359 | 6.4 | 17.7 | 0.00 | 0.00 | 0.00 | 51 | 1015.0 |
| 20260504180327 | 27 | 30 | 8.0 | 17.7 | 0.00 | 0.00 | 0.00 | 51 | 1015.1 |
| 20260504175823 | 27 | 113 | 6.4 | 19.3 | 0.00 | 0.00 | 0.00 | 50 | 1015.2 |
| 20260504175409 | 27 | 84 | 8.0 | 19.3 | 0.00 | 0.00 | 0.00 | 52 | 1015.2 |
| 20260504174846 | 27 | 112 | 8.0 | 19.3 | 0.00 | 0.00 | 0.00 | 50 | 1015.2 |
| 20260504174324 | 27 | 64 | 6.4 | 19.3 | 0.00 | 0.00 | 0.00 | 53 | 1015.2 |
| 20260504173844 | 27 | 105 | 6.4 | 19.3 | 0.00 | 0.00 | 0.00 | 52 | 1015.2 |
| 20260504173324 | 27 | 124 | 9.7 | 17.7 | 0.00 | 0.00 | 0.00 | 53 | 1015.3 |
| 20260504172817 | 27 | 104 | 6.4 | 22.5 | 0.00 | 0.00 | 0.00 | 53 | 1015.4 |
| 20260504172316 | 27 | 101 | 9.7 | 22.5 | 0.00 | 0.00 | 0.00 | 53 | 1015.4 |
| 20260504171817 | 27 | 75 | 9.7 | 22.5 | 0.00 | 0.00 | 0.00 | 54 | 1015.6 |
| 20260504171313 | 27 | 34 | 6.4 | 12.9 | 0.00 | 0.00 | 0.00 | 55 | 1015.7 |
| 20260504170833 | 27 | 72 | 6.4 | 20.9 | 0.00 | 0.00 | 0.00 | 53 | 1015.7 |
| 20260504170346 | 27 | 73 | 8.0 | 20.9 | 0.00 | 0.00 | 0.00 | 55 | 1015.5 |
| 20260504160338 | 26 | 107 | 11.3 | 27.4 | 0.00 | 0.00 | 0.00 | 60 | 1016.0 |
| 20260504150833 | 25 | 58 | 9.7 | 24.1 | 0.00 | 0.00 | 0.00 | 64 | 1016.3 |
| 20260504150334 | 25 | 65 | 11.3 | 24.1 | 0.00 | 0.00 | 0.00 | 65 | 1016.3 |
| 20260504141331 | 24 | 18 | 6.4 | 17.7 | 0.00 | 0.00 | 0.00 | 69 | 1016.0 |
| 20260504140830 | 24 | 118 | 4.8 | 17.7 | 0.00 | 0.00 | 0.00 | 70 | 1016.1 |
| 20260504140349 | 23 | 64 | 6.4 | 20.9 | 0.00 | 0.00 | 0.00 | 70 | 1016.0 |
| 20260504130814 | 22 | 53 | 4.8 | 20.9 | 0.00 | 0.00 | 0.00 | 73 | 1015.8 |
| 20260504130335 | 22 | 56 | 6.4 | 14.5 | 0.00 | 0.00 | 0.00 | 73 | 1015.7 |
| 20260504120314 | 21 | 44 | 4.8 | 14.5 | 0.00 | 0.00 | 0.00 | 80 | 1015.3 |
| 20260504110322 | 19 | 73 | 3.2 | 11.3 | 0.00 | 0.00 | 0.00 | 86 | 1015.2 |
| 20260504100322 | 20 | 13 | 1.6 | 8.0 | 0.00 | 0.00 | 0.00 | 85 | 1014.9 |
| 20260504081826 | 20 | 63 | 1.6 | 8.0 | 0.00 | 0.00 | 0.00 | 81 | 1014.6 |
| 20260504081326 | 21 | 53 | 1.6 | 9.7 | 0.00 | 0.00 | 0.00 | 81 | 1014.7 |
| 20260504080826 | 21 | 37 | 3.2 | 9.7 | 0.00 | 0.00 | 0.00 | 81 | 1014.7 |
| 20260504080326 | 21 | 68 | 3.2 | 8.0 | 0.00 | 0.00 | 0.00 | 81 | 1014.7 |
| 20260504070324 | 21 | 60 | 1.6 | 9.7 | 0.00 | 0.00 | 0.00 | 79 | 1015.3 |
| 20260504050326 | 21 | 65 | 0.0 | 11.3 | 0.00 | 0.03 | 0.00 | 80 | 1016.1 |
| 20260504045826 | 21 | 71 | 3.2 | 11.3 | 0.00 | 0.03 | 0.00 | 80 | 1015.9 |
| 20260504045325 | 21 | 24 | 1.6 | 6.4 | 0.00 | 0.03 | 0.00 | 80 | 1016.0 |
| 20260504044826 | 21 | 51 | 1.6 | 6.4 | 0.00 | 0.03 | 0.00 | 80 | 1016.1 |
| 20260504044322 | 22 | 105 | 1.6 | 8.0 | 0.00 | 0.03 | 0.00 | 80 | 1016.2 |
| 20260504043822 | 22 | 121 | 4.8 | 8.0 | 0.00 | 0.03 | 0.00 | 79 | 1016.0 |
| 20260504043343 | 22 | 78 | 1.6 | 11.3 | 0.00 | 0.03 | 0.00 | 79 | 1016.0 |
| 20260504042819 | 22 | 89 | 4.8 | 12.9 | 0.00 | 0.03 | 0.00 | 79 | 1016.0 |
| 20260504042318 | 22 | 90 | 6.4 | 19.3 | 0.00 | 0.03 | 0.00 | 79 | 1016.1 |
| 20260504041818 | 22 | 70 | 9.7 | 19.3 | 0.00 | 0.03 | 0.00 | 78 | 1016.2 |
| 20260504041314 | 22 | 62 | 6.4 | 12.9 | 0.00 | 0.03 | 0.00 | 78 | 1016.4 |
| 20260504040814 | 22 | 123 | 4.8 | 14.5 | 0.00 | 0.03 | 0.00 | 78 | 1016.3 |
| 20260504040315 | 22 | 49 | 6.4 | 12.9 | 0.00 | 0.03 | 0.00 | 78 | 1016.4 |
| 20260504035847 | 22 | 116 | 4.8 | 16.1 | 0.00 | 0.05 | 0.03 | 78 | 1016.5 |
| 20260504035326 | 22 | 92 | 4.8 | 16.1 | 0.00 | 0.05 | 0.03 | 78 | 1016.6 |
| 20260504034826 | 22 | 39 | 4.8 | 12.9 | 0.00 | 0.05 | 0.03 | 77 | 1016.6 |
| 20260504034345 | 22 | 113 | 6.4 | 14.5 | 0.00 | 0.05 | 0.03 | 77 | 1016.4 |
| 20260504033823 | 22 | 56 | 4.8 | 12.9 | 0.00 | 0.05 | 0.03 | 77 | 1016.5 |
| 20260504033324 | 22 | 105 | 4.8 | 12.9 | 0.00 | 0.05 | 0.03 | 77 | 1016.4 |
| 20260504032823 | 23 | 75 | 3.2 | 16.1 | 0.00 | 0.05 | 0.03 | 77 | 1016.5 |
| 20260504032323 | 23 | 117 | 4.8 | 16.1 | 0.00 | 0.05 | 0.03 | 76 | 1016.5 |
| 20260504031825 | 23 | 72 | 4.8 | 16.1 | 0.00 | 0.05 | 0.03 | 76 | 1016.5 |
| 20260504031324 | 23 | 107 | 8.0 | 14.5 | 0.00 | 0.05 | 0.03 | 76 | 1016.4 |
| 20260504030845 | 23 | 86 | 6.4 | 14.5 | 0.00 | 0.05 | 0.03 | 76 | 1016.4 |
| 20260504030325 | 23 | 118 | 6.4 | 12.9 | 0.00 | 0.05 | 0.03 | 76 | 1016.4 |
| 20260504025823 | 23 | 113 | 4.8 | 16.1 | 0.00 | 0.05 | 0.03 | 77 | 1016.3 |
| 20260504025321 | 23 | 86 | 6.4 | 16.1 | 0.00 | 0.05 | 0.03 | 76 | 1016.2 |
| 20260504024823 | 23 | 105 | 4.8 | 11.3 | 0.00 | 0.05 | 0.03 | 76 | 1016.3 |
| 20260504024322 | 23 | 91 | 4.8 | 11.3 | 0.00 | 0.05 | 0.03 | 75 | 1016.3 |
| 20260504023842 | 23 | 41 | 1.6 | 6.4 | 0.00 | 0.05 | 0.03 | 73 | 1016.2 |
| 20260504023321 | 23 | 113 | 0.0 | 8.0 | 0.00 | 0.05 | 0.03 | 74 | 1016.2 |
| 20260504022839 | 23 | 11 | 3.2 | 9.7 | 0.00 | 0.05 | 0.03 | 74 | 1016.1 |
| 20260504022317 | 22 | 25 | 3.2 | 9.7 | 0.00 | 0.05 | 0.03 | 73 | 1016.0 |
| 20260504021819 | 22 | 353 | 1.6 | 8.0 | 0.00 | 0.05 | 0.03 | 72 | 1015.9 |
| 20260504021317 | 22 | 13 | 3.2 | 8.0 | 0.00 | 0.05 | 0.03 | 72 | 1015.9 |
| 20260504020817 | 22 | 10 | 0.0 | 6.4 | 0.00 | 0.05 | 0.03 | 72 | 1015.9 |
| 20260504020319 | 22 | 11 | 1.6 | 8.0 | 0.00 | 0.05 | 0.03 | 72 | 1015.9 |
| 20260504015819 | 22 | 23 | 1.6 | 8.0 | 0.00 | 0.05 | 0.03 | 72 | 1015.6 |
| 20260504015332 | 22 | 82 | 1.6 | 4.8 | 0.00 | 0.05 | 0.03 | 73 | 1015.4 |
| 20260504014853 | 22 | 335 | 0.0 | 6.4 | 0.00 | 0.05 | 0.03 | 73 | 1015.5 |
| 20260504014330 | 22 | 14 | 1.6 | 6.4 | 0.00 | 0.05 | 0.03 | 72 | 1015.4 |
| 20260504013828 | 22 | 16 | 0.0 | 6.4 | 0.00 | 0.05 | 0.03 | 72 | 1015.4 |
| 20260504013349 | 22 | 5 | 1.6 | 8.0 | 0.00 | 0.05 | 0.03 | 72 | 1015.2 |
| 20260504012826 | 22 | 23 | 4.8 | 11.3 | 0.00 | 0.05 | 0.03 | 72 | 1015.2 |
| 20260504011826 | 22 | 20 | 1.6 | 6.4 | 0.00 | 0.05 | 0.03 | 73 | 1015.1 |
| 20260504011325 | 22 | 359 | 1.6 | 4.8 | 0.00 | 0.05 | 0.03 | 73 | 1015.1 |
| 20260504010825 | 22 | 359 | 0.0 | 4.8 | 0.00 | 0.05 | 0.03 | 73 | 1015.0 |
| 20260504010327 | 22 | 359 | 1.6 | 4.8 | 0.00 | 0.05 | 0.03 | 73 | 1015.0 |
| 20260504005827 | 22 | 11 | 3.2 | 6.4 | 0.00 | 0.05 | 0.03 | 73 | 1014.9 |
| 20260504005325 | 23 | 345 | 1.6 | 8.0 | 0.00 | 0.05 | 0.03 | 73 | 1014.9 |
| 20260504004823 | 23 | 22 | 4.8 | 8.0 | 0.00 | 0.05 | 0.03 | 73 | 1014.8 |
| 20260504004323 | 23 | 306 | 3.2 | 8.0 | 0.00 | 0.05 | 0.03 | 73 | 1014.8 |
| 20260504003844 | 23 | 13 | 3.2 | 11.3 | 0.00 | 0.05 | 0.03 | 73 | 1014.7 |
| 20260504003323 | 23 | 342 | 3.2 | 11.3 | 0.00 | 0.05 | 0.03 | 74 | 1014.7 |
| 20260504002821 | 23 | 352 | 1.6 | 11.3 | 0.00 | 0.05 | 0.03 | 74 | 1014.7 |
| 20260504002319 | 23 | 13 | 3.2 | 11.3 | 0.00 | 0.05 | 0.03 | 73 | 1014.6 |
| 20260504001822 | 23 | 322 | 6.4 | 11.3 | 0.00 | 0.05 | 0.03 | 73 | 1014.5 |
| 20260504001321 | 23 | 337 | 6.4 | 11.3 | 0.00 | 0.05 | 0.03 | 73 | 1014.4 |
| 20260504000820 | 23 | 356 | 3.2 | 12.9 | 0.00 | 0.05 | 0.03 | 73 | 1014.3 |
| 20260504000343 | 23 | 11 | 6.4 | 12.9 | 0.00 | 0.05 | 0.03 | 73 | 1014.3 |
| 20260503235838 | 23 | 345 | 6.4 | 12.9 | 0.00 | 0.05 | 0.03 | 73 | 1014.4 |
| 20260503235318 | 23 | 316 | 4.8 | 17.7 | 0.00 | 0.05 | 0.03 | 72 | 1014.3 |
| 20260503234818 | 23 | 350 | 8.0 | 17.7 | 0.00 | 0.05 | 0.03 | 72 | 1014.1 |
| 20260503234316 | 23 | 298 | 6.4 | 16.1 | 0.00 | 0.05 | 0.03 | 72 | 1014.1 |
| 20260503233815 | 23 | 296 | 4.8 | 17.7 | 0.00 | 0.05 | 0.03 | 72 | 1014.3 |
| 20260503233316 | 23 | 325 | 8.0 | 17.7 | 0.00 | 0.05 | 0.03 | 71 | 1014.2 |
| 20260503232814 | 24 | 23 | 3.2 | 11.3 | 0.00 | 0.05 | 0.03 | 71 | 1014.4 |
| 20260503231815 | 24 | 314 | 4.8 | 16.1 | 0.00 | 0.05 | 0.03 | 70 | 1014.3 |
| 20260503231314 | 24 | 309 | 6.4 | 14.5 | 0.00 | 0.05 | 0.03 | 70 | 1014.2 |
| 20260503230814 | 25 | 335 | 4.8 | 19.3 | 0.00 | 0.05 | 0.03 | 69 | 1014.1 |
| 20260503230336 | 25 | 354 | 11.3 | 19.3 | 0.00 | 0.05 | 0.03 | 68 | 1014.2 |
| 20260503225855 | 25 | 13 | 6.4 | 19.3 | 0.00 | 0.08 | 0.03 | 68 | 1014.2 |
| 20260503225331 | 25 | 349 | 6.4 | 19.3 | 0.00 | 0.08 | 0.03 | 68 | 1014.3 |
| 20260503224853 | 25 | 304 | 6.4 | 16.1 | 0.00 | 0.08 | 0.03 | 67 | 1014.2 |
| 20260503224332 | 25 | 20 | 6.4 | 12.9 | 0.00 | 0.08 | 0.03 | 67 | 1014.2 |
| 20260503223830 | 25 | 314 | 1.6 | 16.1 | 0.00 | 0.08 | 0.03 | 67 | 1014.2 |
| 20260503223329 | 26 | 299 | 8.0 | 17.7 | 0.00 | 0.08 | 0.03 | 65 | 1014.2 |
| 20260503222829 | 26 | 9 | 8.0 | 17.7 | 0.00 | 0.08 | 0.03 | 64 | 1014.2 |
| 20260503222329 | 26 | 354 | 1.6 | 19.3 | 0.00 | 0.08 | 0.03 | 64 | 1014.1 |
| 20260503221831 | 27 | 27 | 4.8 | 9.7 | 0.00 | 0.08 | 0.03 | 58 | 1014.1 |
| 20260503221329 | 27 | 123 | 1.6 | 8.0 | 0.00 | 0.08 | 0.03 | 59 | 1014.1 |
| 20260503220827 | 26 | 53 | 4.8 | 14.5 | 0.00 | 0.08 | 0.03 | 59 | 1014.1 |
| 20260503220328 | 27 | 10 | 6.4 | 14.5 | 0.00 | 0.08 | 0.03 | 59 | 1014.2 |
| 20260503215826 | 27 | 314 | 4.8 | 8.0 | 0.00 | 0.28 | 0.03 | 59 | 1014.2 |